START_TIME,STEP,MOV.,H8,t_acc.,H43,t_acc.,M25,t_acc.,H9,t_acc.
1979-08-05 00:00:28.130 ,0,0,1.,12.0,0.,12.0,0.,12.0,0.,12.0
1979-08-05 00:00:40.130 ,0,0,0.,12.0,0.,12.0,0.,12.0,0.,12.0
1979-08-05 00:00:52.130 ,1,0,0.,12.0,0.,12.0,0.,12.0,0.,12.0
1979-08-05 00:01:04.130 ,1,0,0.,12.0,0.,12.0,0.,12.0,0.,12.0
1979-08-05 00:01:16.130 ,1,0,1.,12.0,0.,12.0,0.,12.0,0.,12.0
1979-08-05 00:01:28.130 ,1,0,0.,12.0,0.,12.0,0.,12.0,0.,12.0
1979-08-05 00:01:40.130 ,2,0,0.,12.0,0.,12.0,0.,12.0,0.,12.0
1979-08-05 00:01:52.130 ,2,0,0.,12.0,0.,12.0,0.,12.0,0.,12.0
1979-08-05 00:02:04.130 ,2,0,0.,12.0,0.,12.0,0.,12.0,0.,12.0
1979-08-05 00:02:16.130 ,2,0,0.,12.0,0.,12.0,0.,12.0,0.,12.0
1979-08-05 00:02:28.130 ,3,0,0.,12.0,0.,12.0,0.,12.0,0.,12.0
1979-08-05 00:02:40.130 ,3,0,0.,12.0,0.,12.0,0.,12.0,0.,12.0
1979-08-05 00:02:52.130 ,3,0,0.,12.0,0.,12.0,0.,12.0,0.,12.0
1979-08-05 00:03:04.130 ,3,0,0.,12.0,0.,12.0,0.,12.0,0.,12.0
1979-08-05 00:03:16.130 ,4,0,0.,12.0,0.,12.0,0.,12.0,0.,12.0
1979-08-05 00:03:28.130 ,4,0,1.,12.0,0.,12.0,0.,12.0,0.,12.0
1979-08-05 00:03:40.130 ,4,0,0.,12.0,0.,12.0,0.,12.0,0.,12.0
1979-08-05 00:03:52.130 ,4,0,0.,12.0,0.,12.0,0.,12.0,0.,12.0
1979-08-05 00:04:04.130 ,5,0,0.,12.0,0.,12.0,0.,12.0,0.,12.0
1979-08-05 00:04:16.130 ,5,0,0.,12.0,0.,12.0,0.,12.0,0.,12.0
1979-08-05 00:04:28.130 ,5,0,0.,12.0,0.,12.0,0.,12.0,0.,12.0
1979-08-05 00:04:40.130 ,5,0,0.,12.0,0.,12.0,0.,12.0,0.,12.0
1979-08-05 00:04:52.130 ,6,0,0.,12.0,0.,12.0,0.,12.0,0.,12.0
1979-08-05 00:05:04.130 ,6,0,0.,12.0,0.,12.0,0.,12.0,0.,12.0
1979-08-05 00:05:16.130 ,6,0,1.,12.0,0.,12.0,0.,12.0,0.,12.0
1979-08-05 00:05:28.130 ,6,0,0.,12.0,0.,12.0,0.,12.0,0.,12.0
1979-08-05 00:05:40.130 ,7,0,0.,12.0,0.,12.0,0.,12.0,0.,12.0
1979-08-05 00:05:52.130 ,7,0,0.,12.0,0.,12.0,0.,12.0,0.,12.0
1979-08-05 00:06:04.130 ,7,0,0.,12.0,0.,12.0,0.,12.0,0.,12.0
1979-08-05 00:06:16.130 ,7,0,0.,12.0,0.,12.0,0.,12.0,0.,12.0
1979-08-05 00:06:28.130 ,7,0,0.,12.0,0.,12.0,0.,12.0,0.,12.0
1979-08-05 00:06:40.130 ,7,0,0.,12.0,0.,12.0,0.,12.0,0.,12.0
1979-08-05 00:06:52.130 ,7,0,0.,12.0,0.,12.0,0.,12.0,0.,12.0
1979-08-05 00:07:04.130 ,7,0,0.,12.0,0.,12.0,0.,12.0,0.,12.0
1979-08-05 00:07:16.130 ,6,0,0.,12.0,0.,12.0,0.,12.0,0.,12.0
1979-08-05 00:07:28.130 ,6,0,0.,12.0,0.,12.0,0.,12.0,0.,12.0
1979-08-05 00:07:40.130 ,6,0,1.,12.0,0.,12.0,0.,12.0,0.,12.0
1979-08-05 00:07:52.130 ,6,0,0.,12.0,0.,12.0,0.,12.0,0.,12.0
1979-08-05 00:08:04.130 ,5,0,0.,12.0,0.,12.0,0.,12.0,0.,12.0
1979-08-05 00:08:16.130 ,5,0,0.,12.0,0.,12.0,0.,12.0,0.,12.0
1979-08-05 00:08:28.130 ,5,0,0.,12.0,0.,12.0,0.,12.0,0.,12.0
1979-08-05 00:08:40.130 ,5,0,0.,12.0,0.,12.0,0.,12.0,0.,12.0
1979-08-05 00:08:52.130 ,4,0,0.,12.0,0.,12.0,0.,12.0,0.,12.0
1979-08-05 00:09:04.130 ,4,0,0.,12.0,0.,12.0,0.,12.0,0.,12.0
1979-08-05 00:09:16.130 ,4,0,0.,12.0,0.,12.0,0.,12.0,0.,12.0
1979-08-05 00:09:28.130 ,4,0,0.,12.0,0.,12.0,0.,12.0,0.,12.0
1979-08-05 00:09:40.130 ,3,0,0.,12.0,0.,12.0,0.,12.0,0.,12.0
1979-08-05 00:09:52.130 ,3,0,0.,12.0,0.,12.0,0.,12.0,0.,12.0
1979-08-05 00:10:04.130 ,3,0,0.,12.0,0.,12.0,0.,12.0,0.,12.0
1979-08-05 00:10:16.130 ,3,0,0.,12.0,0.,12.0,0.,12.0,0.,12.0
1979-08-05 00:10:28.130 ,2,0,0.,12.0,0.,12.0,0.,12.0,0.,12.0
1979-08-05 00:10:40.130 ,2,0,0.,12.0,0.,12.0,0.,12.0,0.,12.0
1979-08-05 00:10:52.130 ,2,0,0.,12.0,0.,12.0,0.,12.0,0.,12.0
1979-08-05 00:11:04.130 ,2,0,0.,12.0,0.,12.0,0.,12.0,0.,12.0
1979-08-05 00:11:16.130 ,1,0,0.,12.0,0.,12.0,0.,12.0,0.,12.0
1979-08-05 00:11:28.130 ,1,0,0.,12.0,0.,12.0,0.,12.0,0.,12.0
1979-08-05 00:11:40.130 ,1,0,0.,12.0,0.,12.0,0.,12.0,0.,12.0
1979-08-05 00:11:52.130 ,1,0,0.,12.0,0.,12.0,0.,12.0,0.,12.0
1979-08-05 00:12:04.130 ,0,0,0.,12.0,0.,12.0,0.,12.0,0.,12.0
1979-08-05 00:12:16.130 ,0,0,0.,12.0,0.,12.0,0.,12.0,0.,12.0
1979-08-05 00:12:28.130 ,0,0,0.,12.0,0.,12.0,0.,12.0,0.,12.0
1979-08-05 00:12:40.130 ,0,0,0.,12.0,0.,12.0,0.,12.0,0.,12.0
1979-08-05 00:12:52.130 ,0,0,1.,12.0,0.,12.0,0.,12.0,0.,12.0
1979-08-05 00:13:04.130 ,0,0,1.,12.0,0.,12.0,0.,12.0,0.,12.0
1979-08-05 00:13:16.130 ,0,0,1.,12.0,0.,12.0,0.,12.0,0.,12.0
1979-08-05 00:13:28.130 ,0,0,0.,12.0,0.,12.0,0.,12.0,0.,12.0
1979-08-05 00:13:40.130 ,1,0,2.,12.0,0.,12.0,0.,12.0,0.,12.0
1979-08-05 00:13:52.130 ,1,0,0.,12.0,0.,12.0,0.,12.0,0.,12.0
1979-08-05 00:14:04.130 ,1,0,1.,12.0,0.,12.0,0.,12.0,0.,12.0
1979-08-05 00:14:16.130 ,1,0,0.,12.0,0.,12.0,0.,12.0,0.,12.0
1979-08-05 00:14:28.130 ,2,0,1.,12.0,0.,12.0,0.,12.0,0.,12.0
1979-08-05 00:14:40.130 ,2,0,0.,12.0,0.,12.0,0.,12.0,0.,12.0
1979-08-05 00:14:52.130 ,2,0,0.,12.0,0.,12.0,0.,12.0,0.,12.0
1979-08-05 00:15:04.130 ,2,0,0.,12.0,0.,12.0,0.,12.0,0.,12.0
1979-08-05 00:15:16.130 ,3,0,0.,12.0,0.,12.0,0.,12.0,0.,12.0
1979-08-05 00:15:28.130 ,3,0,0.,12.0,0.,12.0,0.,12.0,0.,12.0
1979-08-05 00:15:40.130 ,3,0,0.,12.0,0.,12.0,0.,12.0,0.,12.0
1979-08-05 00:15:52.130 ,3,0,0.,12.0,0.,12.0,0.,12.0,0.,12.0
1979-08-05 00:16:04.130 ,4,0,0.,12.0,0.,12.0,0.,12.0,0.,12.0
1979-08-05 00:16:16.130 ,4,0,0.,12.0,0.,12.0,0.,12.0,0.,12.0
1979-08-05 00:16:28.130 ,4,0,0.,12.0,0.,12.0,0.,12.0,0.,12.0
1979-08-05 00:16:40.130 ,4,0,0.,12.0,0.,12.0,0.,12.0,0.,12.0
1979-08-05 00:16:52.130 ,5,0,0.,12.0,0.,12.0,0.,12.0,0.,12.0
1979-08-05 00:17:04.130 ,5,0,0.,12.0,0.,12.0,0.,12.0,0.,12.0
1979-08-05 00:17:16.130 ,5,0,0.,12.0,0.,12.0,0.,12.0,0.,12.0
1979-08-05 00:17:28.130 ,5,0,0.,12.0,0.,12.0,0.,12.0,0.,12.0
1979-08-05 00:17:40.130 ,6,0,0.,12.0,0.,12.0,0.,12.0,0.,12.0
1979-08-05 00:17:52.130 ,6,0,0.,12.0,0.,12.0,0.,12.0,0.,12.0
1979-08-05 00:18:04.130 ,6,0,0.,12.0,0.,12.0,0.,12.0,0.,12.0
1979-08-05 00:18:16.130 ,6,0,0.,12.0,0.,12.0,0.,12.0,0.,12.0
1979-08-05 00:18:28.130 ,7,0,0.,12.0,0.,12.0,0.,12.0,0.,12.0
1979-08-05 00:18:40.130 ,7,0,0.,12.0,0.,12.0,0.,12.0,0.,12.0
1979-08-05 00:18:52.130 ,7,0,0.,12.0,0.,12.0,0.,12.0,0.,12.0
1979-08-05 00:19:04.130 ,7,0,0.,12.0,0.,12.0,0.,12.0,0.,12.0
1979-08-05 00:19:16.130 ,3,1,0.,12.0,0.,12.0,0.,12.0,0.,12.0
1979-08-05 00:19:28.130 ,3,1,0.,12.0,0.,12.0,0.,12.0,0.,12.0
1979-08-05 00:19:40.130 ,0,1,0.,12.0,0.,12.0,0.,12.0,0.,12.0
1979-08-05 00:19:52.130 ,0,1,2.,12.0,0.,12.0,0.,12.0,0.,12.0
1979-08-05 00:20:04.130 ,4,1,1.,12.0,0.,12.0,0.,12.0,0.,12.0
1979-08-05 00:20:16.130 ,4,1,0.,12.0,0.,12.0,0.,12.0,0.,12.0
1979-08-05 00:20:28.130 ,7,1,0.,12.0,0.,12.0,0.,12.0,0.,12.0
1979-08-05 00:20:40.130 ,7,1,0.,12.0,0.,12.0,0.,12.0,0.,12.0
1979-08-05 00:20:52.130 ,3,1,0.,12.0,0.,12.0,0.,12.0,0.,12.0
1979-08-05 00:21:04.130 ,3,1,0.,12.0,0.,12.0,0.,12.0,0.,12.0
1979-08-05 00:21:16.130 ,0,1,0.,12.0,1.,12.0,0.,12.0,0.,12.0
1979-08-05 00:21:28.130 ,0,1,0.,12.0,0.,12.0,0.,12.0,0.,12.0
1979-08-05 00:21:40.130 ,4,1,0.,12.0,0.,12.0,0.,12.0,0.,12.0
1979-08-05 00:21:52.130 ,4,1,0.,12.0,0.,12.0,0.,12.0,0.,12.0
1979-08-05 00:22:04.130 ,7,1,0.,12.0,0.,12.0,0.,12.0,0.,12.0
1979-08-05 00:22:16.130 ,7,1,0.,12.0,0.,12.0,0.,12.0,0.,12.0
1979-08-05 00:22:28.130 ,3,1,0.,12.0,0.,12.0,0.,12.0,0.,12.0
1979-08-05 00:22:40.130 ,3,1,0.,12.0,0.,12.0,0.,12.0,0.,12.0
1979-08-05 00:22:52.130 ,0,1,0.,12.0,0.,12.0,0.,12.0,0.,12.0
1979-08-05 00:23:04.130 ,0,1,1.,12.0,0.,12.0,0.,12.0,0.,12.0
1979-08-05 00:23:16.130 ,4,1,1.,12.0,0.,12.0,0.,12.0,0.,12.0
1979-08-05 00:23:28.130 ,4,1,0.,12.0,0.,12.0,0.,12.0,0.,12.0
1979-08-05 00:23:40.130 ,7,1,0.,12.0,0.,12.0,0.,12.0,0.,12.0
1979-08-05 00:23:52.130 ,7,1,0.,12.0,0.,12.0,0.,12.0,0.,12.0
1979-08-05 00:24:04.130 ,3,1,0.,12.0,0.,12.0,0.,12.0,0.,12.0
1979-08-05 00:24:16.130 ,3,1,0.,12.0,0.,12.0,0.,12.0,0.,12.0
1979-08-05 00:24:28.130 ,0,1,0.,12.0,0.,12.0,0.,12.0,0.,12.0
1979-08-05 00:24:40.130 ,0,1,3.,12.0,0.,12.0,0.,12.0,0.,12.0
1979-08-05 00:24:52.130 ,4,1,2.,12.0,0.,12.0,0.,12.0,0.,12.0
1979-08-05 00:25:04.130 ,4,1,1.,12.0,0.,12.0,0.,12.0,0.,12.0
1979-08-05 00:25:16.130 ,7,1,0.,12.0,0.,12.0,0.,12.0,0.,12.0
1979-08-05 00:25:28.130 ,7,1,0.,12.0,0.,12.0,0.,12.0,0.,12.0
1979-08-05 00:25:40.130 ,3,1,0.,12.0,0.,12.0,0.,12.0,0.,12.0
1979-08-05 00:25:52.130 ,3,1,0.,12.0,0.,12.0,0.,12.0,0.,12.0
1979-08-05 00:26:04.130 ,0,1,0.,12.0,0.,12.0,0.,12.0,0.,12.0
1979-08-05 00:26:16.130 ,0,1,0.,12.0,0.,12.0,0.,12.0,0.,12.0
1979-08-05 00:26:28.130 ,4,1,0.,12.0,0.,12.0,0.,12.0,0.,12.0
1979-08-05 00:26:40.130 ,4,1,0.,12.0,0.,12.0,0.,12.0,0.,12.0
1979-08-05 00:26:52.130 ,7,1,0.,12.0,0.,12.0,0.,12.0,0.,12.0
1979-08-05 00:27:04.130 ,7,1,0.,12.0,0.,12.0,0.,12.0,0.,12.0
1979-08-05 00:27:16.130 ,3,1,0.,12.0,0.,12.0,0.,12.0,0.,12.0
1979-08-05 00:27:28.130 ,3,1,0.,12.0,0.,12.0,0.,12.0,0.,12.0
1979-08-05 00:27:40.130 ,0,1,0.,12.0,0.,12.0,0.,12.0,0.,12.0
1979-08-05 00:27:52.130 ,0,1,0.,12.0,0.,12.0,0.,12.0,0.,12.0
1979-08-05 00:28:04.130 ,4,1,0.,12.0,0.,12.0,0.,12.0,0.,12.0
1979-08-05 00:28:16.130 ,4,1,0.,12.0,0.,12.0,0.,12.0,0.,12.0
1979-08-05 00:28:28.130 ,7,1,0.,12.0,0.,12.0,0.,12.0,0.,12.0
1979-08-05 00:28:40.130 ,7,1,0.,12.0,0.,12.0,0.,12.0,0.,12.0
1979-08-05 00:28:52.130 ,3,1,0.,12.0,0.,12.0,0.,12.0,0.,12.0
1979-08-05 00:29:04.130 ,3,1,0.,12.0,0.,12.0,0.,12.0,0.,12.0
1979-08-05 00:29:16.130 ,0,1,0.,12.0,0.,12.0,0.,12.0,0.,12.0
1979-08-05 00:29:28.130 ,0,1,1.,12.0,0.,12.0,0.,12.0,0.,12.0
1979-08-05 00:29:40.130 ,0,0,0.,12.0,0.,12.0,0.,12.0,0.,12.0
1979-08-05 00:29:52.130 ,0,0,0.,12.0,0.,12.0,0.,12.0,0.,12.0
1979-08-05 00:30:04.130 ,0,0,1.,12.0,0.,12.0,0.,12.0,0.,12.0
1979-08-05 00:30:16.130 ,0,0,0.,12.0,0.,12.0,0.,12.0,0.,12.0
1979-08-05 00:30:28.130 ,5,0,0.,12.0,0.,12.0,0.,12.0,0.,12.0
1979-08-05 00:30:40.130 ,5,0,1.,12.0,0.,12.0,0.,12.0,0.,12.0
1979-08-05 00:30:52.130 ,5,0,0.,12.0,0.,12.0,0.,12.0,0.,12.0
1979-08-05 00:31:04.130 ,5,0,0.,12.0,0.,12.0,0.,12.0,0.,12.0
1979-08-05 00:31:16.130 ,4,0,0.,12.0,0.,12.0,0.,12.0,0.,12.0
1979-08-05 00:31:28.130 ,4,0,0.,12.0,0.,12.0,0.,12.0,0.,12.0
1979-08-05 00:31:40.130 ,4,0,0.,12.0,0.,12.0,0.,12.0,0.,12.0
1979-08-05 00:31:52.130 ,4,0,0.,12.0,0.,12.0,0.,12.0,0.,12.0
1979-08-05 00:32:04.130 ,3,0,0.,12.0,0.,12.0,0.,12.0,0.,12.0
1979-08-05 00:32:16.130 ,3,0,0.,12.0,0.,12.0,0.,12.0,0.,12.0
1979-08-05 00:32:28.130 ,3,0,0.,12.0,0.,12.0,0.,12.0,0.,12.0
1979-08-05 00:32:40.130 ,3,0,0.,12.0,0.,12.0,0.,12.0,0.,12.0
1979-08-05 00:32:52.130 ,2,0,0.,12.0,0.,12.0,0.,12.0,0.,12.0
1979-08-05 00:33:04.130 ,2,0,0.,12.0,0.,12.0,0.,12.0,0.,12.0
1979-08-05 00:33:16.130 ,2,0,0.,12.0,0.,12.0,0.,12.0,0.,12.0
1979-08-05 00:33:28.130 ,2,0,0.,12.0,0.,12.0,0.,12.0,0.,12.0
1979-08-05 00:33:40.130 ,1,0,0.,12.0,0.,12.0,0.,12.0,0.,12.0
1979-08-05 00:33:52.130 ,1,0,1.,12.0,0.,12.0,0.,12.0,0.,12.0
1979-08-05 00:34:04.130 ,1,0,0.,12.0,0.,12.0,0.,12.0,0.,12.0
1979-08-05 00:34:16.130 ,1,0,0.,12.0,0.,12.0,0.,12.0,0.,12.0
1979-08-05 00:34:28.130 ,0,0,0.,12.0,0.,12.0,0.,12.0,0.,12.0
1979-08-05 00:34:40.130 ,0,0,1.,12.0,0.,12.0,0.,12.0,0.,12.0
1979-08-05 00:34:52.130 ,0,0,0.,12.0,0.,12.0,0.,12.0,0.,12.0
1979-08-05 00:35:04.130 ,0,0,0.,12.0,0.,12.0,0.,12.0,0.,12.0
1979-08-05 00:35:16.130 ,0,0,1.,12.0,0.,12.0,0.,12.0,0.,12.0
1979-08-05 00:35:28.130 ,0,0,1.,12.0,0.,12.0,0.,12.0,0.,12.0
1979-08-05 00:35:40.130 ,0,0,0.,12.0,0.,12.0,0.,12.0,0.,12.0
1979-08-05 00:35:52.130 ,0,0,0.,12.0,0.,12.0,0.,12.0,0.,12.0
1979-08-05 00:36:04.130 ,1,0,0.,12.0,0.,12.0,0.,12.0,0.,12.0
1979-08-05 00:36:16.130 ,1,0,0.,12.0,0.,12.0,0.,12.0,0.,12.0
1979-08-05 00:36:28.130 ,1,0,0.,12.0,0.,12.0,0.,12.0,0.,12.0
1979-08-05 00:36:40.130 ,1,0,1.,12.0,0.,12.0,0.,12.0,0.,12.0
1979-08-05 00:36:52.130 ,2,0,0.,12.0,0.,12.0,0.,12.0,0.,12.0
1979-08-05 00:37:04.130 ,2,0,0.,12.0,0.,12.0,0.,12.0,0.,12.0
1979-08-05 00:37:16.130 ,2,0,0.,12.0,0.,12.0,0.,12.0,0.,12.0
1979-08-05 00:37:28.130 ,2,0,0.,12.0,0.,12.0,0.,12.0,0.,12.0
1979-08-05 00:37:40.130 ,3,0,0.,12.0,0.,12.0,0.,12.0,0.,12.0
1979-08-05 00:37:52.130 ,3,0,0.,12.0,0.,12.0,0.,12.0,0.,12.0
1979-08-05 00:38:04.130 ,3,0,0.,12.0,0.,12.0,0.,12.0,0.,12.0
1979-08-05 00:38:16.130 ,3,0,0.,12.0,0.,12.0,0.,12.0,0.,12.0
1979-08-05 00:38:28.130 ,4,0,0.,12.0,0.,12.0,0.,12.0,0.,12.0
1979-08-05 00:38:40.130 ,4,0,0.,12.0,0.,12.0,0.,12.0,0.,12.0
1979-08-05 00:38:52.130 ,4,0,0.,12.0,0.,12.0,0.,12.0,0.,12.0
1979-08-05 00:39:04.130 ,4,0,0.,12.0,0.,12.0,0.,12.0,0.,12.0
1979-08-05 00:39:16.130 ,5,0,0.,12.0,0.,12.0,0.,12.0,0.,12.0
1979-08-05 00:39:28.130 ,5,0,0.,12.0,0.,12.0,0.,12.0,0.,12.0
1979-08-05 00:39:40.130 ,5,0,0.,12.0,0.,12.0,0.,12.0,0.,12.0
1979-08-05 00:39:52.130 ,5,0,0.,12.0,0.,12.0,0.,12.0,0.,12.0
1979-08-05 00:40:04.130 ,6,0,0.,12.0,0.,12.0,0.,12.0,0.,12.0
1979-08-05 00:40:16.130 ,6,0,1.,12.0,0.,12.0,0.,12.0,0.,12.0
1979-08-05 00:40:28.130 ,6,0,0.,12.0,0.,12.0,0.,12.0,0.,12.0
1979-08-05 00:40:40.130 ,6,0,0.,12.0,0.,12.0,0.,12.0,0.,12.0
1979-08-05 00:40:52.130 ,7,0,1.,12.0,0.,12.0,0.,12.0,0.,12.0
1979-08-05 00:41:04.130 ,7,0,0.,12.0,0.,12.0,0.,12.0,0.,12.0
1979-08-05 00:41:16.130 ,7,0,0.,12.0,0.,12.0,0.,12.0,0.,12.0
1979-08-05 00:41:28.130 ,7,0,0.,12.0,0.,12.0,0.,12.0,0.,12.0
1979-08-05 00:41:40.130 ,7,0,0.,12.0,0.,12.0,0.,12.0,0.,12.0
1979-08-05 00:41:52.130 ,7,0,0.,12.0,0.,12.0,0.,12.0,0.,12.0
1979-08-05 00:42:04.130 ,7,0,0.,12.0,0.,12.0,0.,12.0,0.,12.0
1979-08-05 00:42:16.130 ,7,0,0.,12.0,0.,12.0,0.,12.0,0.,12.0
1979-08-05 00:42:28.130 ,6,0,0.,12.0,0.,12.0,0.,12.0,0.,12.0
1979-08-05 00:42:40.130 ,6,0,0.,12.0,0.,12.0,0.,12.0,0.,12.0
1979-08-05 00:42:52.130 ,6,0,0.,12.0,0.,12.0,0.,12.0,0.,12.0
1979-08-05 00:43:04.130 ,6,0,0.,12.0,0.,12.0,0.,12.0,0.,12.0
1979-08-05 00:43:16.130 ,5,0,0.,12.0,0.,12.0,0.,12.0,0.,12.0
1979-08-05 00:43:28.130 ,5,0,0.,12.0,0.,12.0,0.,12.0,0.,12.0
1979-08-05 00:43:40.130 ,5,0,0.,12.0,0.,12.0,0.,12.0,0.,12.0
1979-08-05 00:43:52.130 ,5,0,0.,12.0,0.,12.0,0.,12.0,0.,12.0
1979-08-05 00:44:04.130 ,4,0,0.,12.0,0.,12.0,0.,12.0,0.,12.0
1979-08-05 00:44:16.130 ,4,0,1.,12.0,0.,12.0,0.,12.0,0.,12.0
1979-08-05 00:44:28.130 ,4,0,0.,12.0,0.,12.0,0.,12.0,0.,12.0
1979-08-05 00:44:40.130 ,4,0,0.,12.0,0.,12.0,0.,12.0,0.,12.0
1979-08-05 00:44:52.130 ,3,0,0.,12.0,0.,12.0,0.,12.0,0.,12.0
1979-08-05 00:45:04.130 ,3,0,0.,12.0,0.,12.0,0.,12.0,0.,12.0
1979-08-05 00:45:16.130 ,3,0,0.,12.0,0.,12.0,0.,12.0,0.,12.0
1979-08-05 00:45:28.130 ,3,0,0.,12.0,0.,12.0,0.,12.0,0.,12.0
1979-08-05 00:45:40.130 ,2,0,0.,12.0,0.,12.0,0.,12.0,0.,12.0
1979-08-05 00:45:52.130 ,2,0,0.,12.0,0.,12.0,0.,12.0,0.,12.0
1979-08-05 00:46:04.130 ,2,0,0.,12.0,0.,12.0,0.,12.0,0.,12.0
1979-08-05 00:46:16.130 ,2,0,0.,12.0,0.,12.0,0.,12.0,0.,12.0
1979-08-05 00:46:28.130 ,1,0,0.,12.0,0.,12.0,0.,12.0,0.,12.0
1979-08-05 00:46:40.130 ,1,0,0.,12.0,0.,12.0,0.,12.0,0.,12.0
1979-08-05 00:46:52.130 ,1,0,0.,12.0,0.,12.0,0.,12.0,0.,12.0
1979-08-05 00:47:04.130 ,1,0,0.,12.0,0.,12.0,0.,12.0,0.,12.0
1979-08-05 00:47:16.130 ,0,0,1.,12.0,0.,12.0,0.,12.0,0.,12.0
1979-08-05 00:47:28.130 ,0,0,0.,12.0,0.,12.0,0.,12.0,0.,12.0
1979-08-05 00:47:40.130 ,0,0,0.,12.0,0.,12.0,0.,12.0,0.,12.0
1979-08-05 00:47:52.130 ,0,0,0.,12.0,0.,12.0,0.,12.0,0.,12.0
1979-08-05 00:48:04.130 ,0,0,0.,12.0,0.,12.0,0.,12.0,0.,12.0
1979-08-05 00:48:16.130 ,0,0,1.,12.0,0.,12.0,0.,12.0,0.,12.0
1979-08-05 00:48:28.130 ,0,0,1.,12.0,0.,12.0,0.,12.0,0.,12.0
1979-08-05 00:48:40.130 ,0,0,0.,12.0,0.,12.0,0.,12.0,0.,12.0
1979-08-05 00:48:52.130 ,1,0,0.,12.0,0.,12.0,0.,12.0,0.,12.0
1979-08-05 00:49:04.130 ,1,0,0.,12.0,0.,12.0,0.,12.0,0.,12.0
1979-08-05 00:49:16.130 ,1,0,1.,12.0,0.,12.0,0.,12.0,0.,12.0
1979-08-05 00:49:28.130 ,1,0,0.,12.0,0.,12.0,0.,12.0,0.,12.0
1979-08-05 00:49:40.130 ,2,0,0.,12.0,0.,12.0,0.,12.0,0.,12.0
1979-08-05 00:49:52.130 ,2,0,0.,12.0,0.,12.0,0.,12.0,0.,12.0
1979-08-05 00:50:04.130 ,2,0,0.,12.0,0.,12.0,0.,12.0,0.,12.0
1979-08-05 00:50:16.130 ,2,0,0.,12.0,0.,12.0,0.,12.0,0.,12.0
1979-08-05 00:50:28.130 ,3,0,0.,12.0,0.,12.0,0.,12.0,0.,12.0
1979-08-05 00:50:40.130 ,3,0,0.,12.0,0.,12.0,0.,12.0,0.,12.0
1979-08-05 00:50:52.130 ,3,0,0.,12.0,0.,12.0,0.,12.0,0.,12.0
1979-08-05 00:51:04.130 ,3,0,0.,12.0,0.,12.0,0.,12.0,0.,12.0
1979-08-05 00:51:16.130 ,4,0,0.,12.0,0.,12.0,0.,12.0,0.,12.0
1979-08-05 00:51:28.130 ,4,0,0.,12.0,0.,12.0,0.,12.0,0.,12.0
1979-08-05 00:51:40.130 ,4,0,0.,12.0,0.,12.0,0.,12.0,0.,12.0
1979-08-05 00:51:52.130 ,4,0,0.,12.0,0.,12.0,0.,12.0,0.,12.0
1979-08-05 00:52:04.130 ,5,0,0.,12.0,0.,12.0,0.,12.0,0.,12.0
1979-08-05 00:52:16.130 ,5,0,0.,12.0,0.,12.0,0.,12.0,0.,12.0
1979-08-05 00:52:28.130 ,5,0,0.,12.0,0.,12.0,0.,12.0,0.,12.0
1979-08-05 00:52:40.130 ,5,0,0.,12.0,0.,12.0,0.,12.0,0.,12.0
1979-08-05 00:52:52.130 ,6,0,0.,12.0,0.,12.0,0.,12.0,0.,12.0
1979-08-05 00:53:04.130 ,6,0,0.,12.0,0.,12.0,0.,12.0,0.,12.0
1979-08-05 00:53:16.130 ,6,0,1.,12.0,0.,12.0,0.,12.0,0.,12.0
1979-08-05 00:53:28.130 ,6,0,0.,12.0,0.,12.0,0.,12.0,0.,12.0
1979-08-05 00:53:40.130 ,7,0,0.,12.0,0.,12.0,0.,12.0,0.,12.0
1979-08-05 00:53:52.130 ,7,0,0.,12.0,0.,12.0,0.,12.0,0.,12.0
1979-08-05 00:54:04.130 ,7,0,0.,12.0,0.,12.0,0.,12.0,0.,12.0
1979-08-05 00:54:16.130 ,7,0,0.,12.0,0.,12.0,0.,12.0,0.,12.0
1979-08-05 00:54:28.130 ,7,0,0.,12.0,0.,12.0,0.,12.0,0.,12.0
1979-08-05 00:54:40.130 ,7,0,0.,12.0,0.,12.0,0.,12.0,0.,12.0
1979-08-05 00:54:52.130 ,7,0,0.,12.0,0.,12.0,0.,12.0,0.,12.0
1979-08-05 00:55:04.130 ,7,0,0.,12.0,0.,12.0,0.,12.0,0.,12.0
1979-08-05 00:55:16.130 ,6,0,0.,12.0,0.,12.0,0.,12.0,0.,12.0
1979-08-05 00:55:28.130 ,6,0,0.,12.0,0.,12.0,0.,12.0,0.,12.0
1979-08-05 00:55:40.130 ,6,0,1.,12.0,0.,12.0,0.,12.0,0.,12.0
1979-08-05 00:55:52.130 ,6,0,0.,12.0,0.,12.0,0.,12.0,0.,12.0
1979-08-05 00:56:04.130 ,5,0,0.,12.0,0.,12.0,0.,12.0,0.,12.0
1979-08-05 00:56:16.130 ,5,0,0.,12.0,0.,12.0,0.,12.0,0.,12.0
1979-08-05 00:56:28.130 ,5,0,0.,12.0,0.,12.0,0.,12.0,0.,12.0
1979-08-05 00:56:40.130 ,5,0,0.,12.0,0.,12.0,0.,12.0,0.,12.0
1979-08-05 00:56:52.130 ,4,0,0.,12.0,0.,12.0,0.,12.0,0.,12.0
1979-08-05 00:57:04.130 ,4,0,0.,12.0,0.,12.0,0.,12.0,0.,12.0
1979-08-05 00:57:16.130 ,4,0,0.,12.0,0.,12.0,0.,12.0,0.,12.0
1979-08-05 00:57:28.130 ,4,0,0.,12.0,0.,12.0,0.,12.0,0.,12.0
1979-08-05 00:57:40.130 ,3,0,0.,12.0,0.,12.0,0.,12.0,0.,12.0
1979-08-05 00:57:52.130 ,3,0,1.,12.0,0.,12.0,0.,12.0,0.,12.0
1979-08-05 00:58:04.130 ,3,0,0.,12.0,0.,12.0,0.,12.0,0.,12.0
1979-08-05 00:58:16.130 ,3,0,0.,12.0,0.,12.0,0.,12.0,0.,12.0
1979-08-05 00:58:28.130 ,2,0,0.,12.0,0.,12.0,0.,12.0,0.,12.0
1979-08-05 00:58:40.130 ,2,0,1.,12.0,0.,12.0,0.,12.0,0.,12.0
1979-08-05 00:58:52.130 ,2,0,0.,12.0,0.,12.0,0.,12.0,0.,12.0
1979-08-05 00:59:04.130 ,2,0,0.,12.0,0.,12.0,0.,12.0,0.,12.0
1979-08-05 00:59:16.130 ,1,0,0.,12.0,0.,12.0,0.,12.0,0.,12.0
1979-08-05 00:59:28.130 ,1,0,0.,12.0,0.,12.0,0.,12.0,0.,12.0
1979-08-05 00:59:40.130 ,1,0,1.,12.0,0.,12.0,0.,12.0,0.,12.0
1979-08-05 00:59:52.130 ,1,0,0.,12.0,0.,12.0,0.,12.0,0.,12.0
1979-08-05 01:00:04.130 ,0,0,0.,12.0,0.,12.0,0.,12.0,0.,12.0
1979-08-05 01:00:16.130 ,0,0,1.,12.0,0.,12.0,0.,12.0,0.,12.0
1979-08-05 01:00:28.130 ,0,0,0.,12.0,0.,12.0,0.,12.0,0.,12.0
1979-08-05 01:00:40.130 ,0,0,2.,12.0,0.,12.0,0.,12.0,0.,12.0
1979-08-05 01:00:52.130 ,0,0,0.,12.0,0.,12.0,0.,12.0,0.,12.0
1979-08-05 01:01:04.130 ,0,0,0.,12.0,0.,12.0,0.,12.0,0.,12.0
1979-08-05 01:01:16.130 ,0,0,1.,12.0,0.,12.0,0.,12.0,0.,12.0
1979-08-05 01:01:28.130 ,0,0,0.,12.0,0.,12.0,0.,12.0,0.,12.0
1979-08-05 01:01:40.130 ,1,0,0.,12.0,0.,12.0,0.,12.0,0.,12.0
1979-08-05 01:01:52.130 ,1,0,1.,12.0,0.,12.0,0.,12.0,0.,12.0
1979-08-05 01:02:04.130 ,1,0,0.,12.0,0.,12.0,0.,12.0,0.,12.0
1979-08-05 01:02:16.130 ,1,0,2.,12.0,0.,12.0,0.,12.0,0.,12.0
1979-08-05 01:02:28.130 ,2,0,2.,12.0,0.,12.0,0.,12.0,0.,12.0
1979-08-05 01:02:40.130 ,2,0,0.,12.0,0.,12.0,0.,12.0,0.,12.0
1979-08-05 01:02:52.130 ,2,0,0.,12.0,0.,12.0,0.,12.0,0.,12.0
1979-08-05 01:03:04.130 ,2,0,0.,12.0,0.,12.0,0.,12.0,0.,12.0
1979-08-05 01:03:16.130 ,3,0,0.,12.0,0.,12.0,0.,12.0,0.,12.0
1979-08-05 01:03:28.130 ,3,0,0.,12.0,0.,12.0,0.,12.0,0.,12.0
1979-08-05 01:03:40.130 ,3,0,0.,12.0,0.,12.0,0.,12.0,0.,12.0
1979-08-05 01:03:52.130 ,3,0,0.,12.0,0.,12.0,0.,12.0,0.,12.0
1979-08-05 01:04:04.130 ,4,0,0.,12.0,0.,12.0,0.,12.0,0.,12.0
1979-08-05 01:04:16.130 ,4,0,1.,12.0,0.,12.0,0.,12.0,0.,12.0
1979-08-05 01:04:28.130 ,4,0,0.,12.0,0.,12.0,0.,12.0,0.,12.0
1979-08-05 01:04:40.130 ,4,0,0.,12.0,0.,12.0,0.,12.0,0.,12.0
1979-08-05 01:04:52.130 ,5,0,1.,12.0,0.,12.0,0.,12.0,0.,12.0
1979-08-05 01:05:04.130 ,5,0,0.,12.0,0.,12.0,0.,12.0,0.,12.0
1979-08-05 01:05:16.130 ,5,0,0.,12.0,0.,12.0,0.,12.0,0.,12.0
1979-08-05 01:05:28.130 ,5,0,0.,12.0,0.,12.0,0.,12.0,0.,12.0
1979-08-05 01:05:40.130 ,6,0,0.,12.0,0.,12.0,0.,12.0,0.,12.0
1979-08-05 01:05:52.130 ,6,0,0.,12.0,0.,12.0,0.,12.0,0.,12.0
1979-08-05 01:06:04.130 ,6,0,0.,12.0,0.,12.0,0.,12.0,0.,12.0
1979-08-05 01:06:16.130 ,6,0,0.,12.0,0.,12.0,0.,12.0,0.,12.0
1979-08-05 01:06:28.130 ,7,0,0.,12.0,0.,12.0,0.,12.0,0.,12.0
1979-08-05 01:06:40.130 ,7,0,0.,12.0,0.,12.0,0.,12.0,0.,12.0
1979-08-05 01:06:52.130 ,7,0,0.,12.0,0.,12.0,0.,12.0,0.,12.0
1979-08-05 01:07:04.130 ,7,0,0.,12.0,0.,12.0,0.,12.0,0.,12.0
1979-08-05 01:07:16.130 ,3,1,0.,12.0,0.,12.0,0.,12.0,0.,12.0
1979-08-05 01:07:28.130 ,3,1,0.,12.0,0.,12.0,0.,12.0,0.,12.0
1979-08-05 01:07:40.130 ,0,1,0.,12.0,0.,12.0,0.,12.0,0.,12.0
1979-08-05 01:07:52.130 ,0,1,0.,12.0,0.,12.0,0.,12.0,0.,12.0
1979-08-05 01:08:04.130 ,4,1,0.,12.0,0.,12.0,0.,12.0,0.,12.0
1979-08-05 01:08:16.130 ,4,1,0.,12.0,0.,12.0,0.,12.0,0.,12.0
1979-08-05 01:08:28.130 ,7,1,0.,12.0,0.,12.0,0.,12.0,0.,12.0
1979-08-05 01:08:40.130 ,7,1,0.,12.0,0.,12.0,0.,12.0,0.,12.0
1979-08-05 01:08:52.130 ,3,1,0.,12.0,0.,12.0,0.,12.0,0.,12.0
1979-08-05 01:09:04.130 ,3,1,0.,12.0,0.,12.0,0.,12.0,0.,12.0
1979-08-05 01:09:16.130 ,0,1,0.,12.0,0.,12.0,0.,12.0,0.,12.0
1979-08-05 01:09:28.130 ,0,1,0.,12.0,0.,12.0,0.,12.0,0.,12.0
1979-08-05 01:09:40.130 ,4,1,1.,12.0,0.,12.0,0.,12.0,0.,12.0
1979-08-05 01:09:52.130 ,4,1,0.,12.0,0.,12.0,0.,12.0,0.,12.0
1979-08-05 01:10:04.130 ,7,1,0.,12.0,0.,12.0,0.,12.0,0.,12.0
1979-08-05 01:10:16.130 ,7,1,0.,12.0,0.,12.0,0.,12.0,0.,12.0
1979-08-05 01:10:28.130 ,3,1,0.,12.0,0.,12.0,0.,12.0,0.,12.0
1979-08-05 01:10:40.130 ,3,1,0.,12.0,0.,12.0,0.,12.0,0.,12.0
1979-08-05 01:10:52.130 ,0,1,0.,12.0,0.,12.0,0.,12.0,0.,12.0
1979-08-05 01:11:04.130 ,0,1,1.,12.0,0.,12.0,0.,12.0,0.,12.0
1979-08-05 01:11:16.130 ,4,1,0.,12.0,0.,12.0,0.,12.0,0.,12.0
1979-08-05 01:11:28.130 ,4,1,0.,12.0,0.,12.0,0.,12.0,0.,12.0
1979-08-05 01:11:40.130 ,7,1,0.,12.0,0.,12.0,0.,12.0,0.,12.0
1979-08-05 01:11:52.130 ,7,1,0.,12.0,0.,12.0,0.,12.0,0.,12.0
1979-08-05 01:12:04.130 ,3,1,0.,12.0,0.,12.0,0.,12.0,0.,12.0
1979-08-05 01:12:16.130 ,3,1,0.,12.0,0.,12.0,0.,12.0,0.,12.0
1979-08-05 01:12:28.130 ,0,1,0.,12.0,0.,12.0,0.,12.0,0.,12.0
1979-08-05 01:12:40.130 ,0,1,2.,12.0,0.,12.0,0.,12.0,0.,12.0
1979-08-05 01:12:52.130 ,4,1,0.,12.0,0.,12.0,0.,12.0,0.,12.0
1979-08-05 01:13:04.130 ,4,1,0.,12.0,0.,12.0,0.,12.0,0.,12.0
1979-08-05 01:13:16.130 ,7,1,0.,12.0,0.,12.0,0.,12.0,0.,12.0
1979-08-05 01:13:28.130 ,7,1,0.,12.0,0.,12.0,0.,12.0,0.,12.0
1979-08-05 01:13:40.130 ,3,1,1.,12.0,0.,12.0,131072.,12.0,2162688.,12.0
1979-08-05 01:13:52.130 ,3,1,0.,12.0,0.,12.0,0.,12.0,0.,12.0
1979-08-05 01:14:04.130 ,0,1,0.,12.0,0.,12.0,0.,12.0,0.,12.0
1979-08-05 01:14:16.130 ,0,1,0.,12.0,0.,12.0,0.,12.0,0.,12.0
1979-08-05 01:14:28.130 ,4,1,0.,12.0,0.,12.0,0.,12.0,0.,12.0
1979-08-05 01:14:40.130 ,4,1,0.,12.0,0.,12.0,0.,12.0,0.,12.0
1979-08-05 01:14:52.130 ,7,1,1.,12.0,0.,12.0,0.,12.0,0.,12.0
1979-08-05 01:15:04.130 ,7,1,0.,12.0,0.,12.0,0.,12.0,0.,12.0
1979-08-05 01:15:16.130 ,3,1,0.,12.0,0.,12.0,0.,12.0,0.,12.0
1979-08-05 01:15:28.130 ,3,1,0.,12.0,0.,12.0,0.,12.0,0.,12.0
1979-08-05 01:15:40.130 ,0,1,0.,12.0,0.,12.0,0.,12.0,0.,12.0
1979-08-05 01:15:52.130 ,0,1,0.,12.0,0.,12.0,0.,12.0,0.,12.0
1979-08-05 01:16:04.130 ,4,1,0.,12.0,0.,12.0,0.,12.0,0.,12.0
1979-08-05 01:16:16.130 ,4,1,1.,12.0,0.,12.0,0.,12.0,0.,12.0
1979-08-05 01:16:28.130 ,7,1,0.,12.0,0.,12.0,0.,12.0,0.,12.0
1979-08-05 01:16:40.130 ,7,1,0.,12.0,0.,12.0,0.,12.0,0.,12.0
1979-08-05 01:16:52.130 ,3,1,0.,12.0,0.,12.0,0.,12.0,0.,12.0
1979-08-05 01:17:04.130 ,3,1,0.,12.0,0.,12.0,0.,12.0,0.,12.0
1979-08-05 01:17:16.130 ,0,1,0.,12.0,0.,12.0,0.,12.0,0.,12.0